Mountain Home, AR

3:08 PM CST on December 06, 2019 (GMT -0600)
Baxter County Regional

Weather History for KBPK - October, 2019

Change the Weather History Date:

Saturday, October 19, 2019

  Actual Average (KFLP) Record (KFLP)
Temperature  
Mean Temperature 56 °F -  
Max Temperature 70 °F 69 °F 89 °F (2016)
Min Temperature 43 °F 46 °F 30 °F (1996)
Degree Days  
Heating Degree Days 9    
Growing Degree Days 6 (Base 50)    
Moisture  
Dew Point 50 °F    
Average Humidity 79    
Maximum Humidity 100    
Minimum Humidity 57    
Precipitation  
Precipitation 0.00 in - - ()
Sea Level Pressure  
Sea Level Pressure 29.79 in    
Wind  
Wind Speed 2 mph (SE)    
Max Wind Speed 5 mph    
Max Gust Speed -    
Visibility 10 miles    
Events Rain    
Averages and records for this station are not official NWS values.
T = Trace of Precipitation, MM = Missing Value Source: NWS Daily Summary

Daily Weather History Graph

Daily Weather History Graph

Search for Another Location

Airport or City:

Astronomy

Oct. 19, 2019 Rise Set
Actual Time 7:20 AM CDT 6:28 PM CDT
Civil Twilight 6:54 AM CDT 6:54 PM CDT
Nautical Twilight 6:24 AM CDT 7:24 PM CDT
Astronomical Twilight 5:54 AM CDT 7:54 PM CDT
Moon 10:45 PM CDT (10/19) 12:46 PM CDT (10/19)
Length of Visible Light 12h 00m
Length of Day
11h 08m
Waning Gibbous, 69% of the Moon is Illuminated
Oct 19
Waning Gibbous
Oct 21
Last Quarter
Oct 27
New
Nov 4
First Quarter
Nov 12
Full

Hourly Weather History & Observations

Time (CDT) Temp. Windchill Dew Point Humidity Pressure Visibility Wind Dir Wind Speed Gust Speed Precip Events Conditions
12:53 AM 51.1 °F - 44.1 °F 77% 29.80 in 10.0 mi SE 3.5 mph - N/A   Clear
1:53 AM 50.0 °F - 44.1 °F 80% 29.79 in 10.0 mi Calm Calm - N/A   Clear
2:53 AM 48.0 °F - 44.1 °F 86% 29.79 in 10.0 mi ESE 3.5 mph - N/A   Clear
3:53 AM 48.0 °F - 44.1 °F 86% 29.78 in 10.0 mi SSE 4.6 mph - N/A   Clear
4:53 AM 48.0 °F - 44.1 °F 86% 29.80 in 10.0 mi Calm Calm - N/A   Clear
5:53 AM 43.0 °F 41.3 °F 43.0 °F 100% 29.82 in 10.0 mi East 3.5 mph - N/A   Clear
6:53 AM 46.0 °F 43.9 °F 44.1 °F 93% 29.81 in 10.0 mi East 4.6 mph - N/A   Clear
7:53 AM 46.0 °F 44.8 °F 45.0 °F 96% 29.80 in 10.0 mi East 3.5 mph - N/A   Clear
8:53 AM 52.0 °F - 46.9 °F 83% 29.81 in 10.0 mi South 4.6 mph - N/A   Clear
9:53 AM 55.0 °F - 48.0 °F 77% 29.81 in 10.0 mi South 4.6 mph - N/A   Clear
10:53 AM 61.0 °F - 48.9 °F 64% 29.81 in 10.0 mi Variable 3.5 mph - N/A   Clear
11:53 AM 64.0 °F - 48.9 °F 58% 29.80 in 10.0 mi Calm Calm - N/A   Scattered Clouds
12:53 PM 64.9 °F - 50.0 °F 58% 29.79 in 10.0 mi NNW 3.5 mph - N/A   Clear
1:53 PM 63.0 °F - 54.0 °F 72% 29.77 in 10.0 mi Calm Calm - 0.00 in Rain Light Rain
2:53 PM 66.0 °F - 52.0 °F 60% 29.75 in 10.0 mi Calm Calm - 0.00 in   Clear
3:53 PM 69.1 °F - 53.1 °F 57% 29.75 in 10.0 mi East 3.5 mph - N/A   Clear
4:53 PM 69.1 °F - 54.0 °F 58% 29.74 in 10.0 mi Calm Calm - N/A   Clear
5:53 PM 64.0 °F - 55.9 °F 75% 29.75 in 10.0 mi Calm Calm - N/A   Scattered Clouds
6:53 PM 59.0 °F - 55.0 °F 87% 29.76 in 10.0 mi Calm Calm - N/A   Scattered Clouds
7:53 PM 57.9 °F - 55.9 °F 93% 29.78 in 10.0 mi Calm Calm - N/A   Mostly Cloudy
8:53 PM 60.1 °F - 55.9 °F 86% 29.78 in 10.0 mi Calm Calm - N/A   Overcast
9:53 PM 60.1 °F - 55.9 °F 86% 29.80 in 10.0 mi Calm Calm - N/A   Overcast
10:53 PM 59.0 °F - 57.0 °F 93% 29.81 in 10.0 mi Calm Calm - N/A   Overcast
11:53 PM 60.1 °F - 55.9 °F 86% 29.81 in 10.0 mi Calm Calm - N/A   Overcast